AMOS-17

Last updated on Sat Aug 15 2026 00:03:02 GMT+0000 (Coordinated Universal Time)

1 44479U 19050A 26226.57134942 .00000094 00000+0 00000+0 0 9997 2 44479 0.0338 307.8441 0002164 220.3652 17.4733 1.00274546 25779
UTC large
Height (km)
Speed (km/s)
/
Latitude / Longitude
Inclination (degrees)
Orbital Period (minutes)
Azimuth
Elevation
Range (km)
Doppler Factor

Next 0 passes for location: London (51.5072 / 0.1276)

No passes found over London.
AMOS-17